#timestamp,LO_Frequency,Hit,StdDev 
1711159215.1,286046992.1,N
1711159235.9,286046990.4,N
1711159255.7,286046990.1,N
1711159275.5,286046992.6,N
1711159295.4,286046992.4,N
1711159315.2,286046990.2,N
1711159335.1,286046992.2,N
1711159336.0,286046992.2,N
1711159355.8,286046993.4,N
1711159375.6,286046993.6,N
1711159395.5,286046993.7,N
1711159415.3,286046993.5,N
1711159435.1,286046995.1,N
1711159455.9,286046999.2,N
1711159475.7,286047000.2,N
1711159495.6,286047001.5,N
1711159515.4,286047003.1,N
1711159535.2,286047003.3,N
1711159555.1,286047004.4,N
1711159556.0,286047004.4,N
1711159575.8,286047000.6,N
1711159595.7,286047002.8,N
1711159615.5,286047005.7,N
1711159635.3,286047008.8,N
1711159655.2,286047011.9,N
1711159675.9,286047012.0,N
1711159695.7,286047012.4,N
1711159715.6,286047010.0,N
1711159735.4,286047008.4,N
1711159755.2,286047006.3,N
1711159775.1,286047007.0,N
1711159776.0,286047007.0,N
1711159795.8,286047003.0,N
1711159815.7,286047010.3,N
1711159835.5,286047013.8,N
1711159855.3,286047014.8,N
1711159875.2,286047018.4,N
1711159895.0,286047017.9,N
1711159895.9,286047017.9,N
1711159915.8,286047019.1,N
1711159935.6,286047021.1,N
1711159955.4,286047024.2,Y
1711159975.3,286047017.6,P
1711159995.1,286047020.4,P
1711160015.8,286047018.8,P
1711160035.7,286047015.3,Y
1711160055.5,286046996.7,P
1711160075.4,286046995.2,N
1711160095.2,286046993.4,N
1711160115.0,286046991.5,N
1711160115.9,286046991.5,N
1711160135.8,286046992.6,N
1711160155.6,286046990.9,N
1711160175.4,286046992.4,N
1711160195.3,286046990.5,N
1711160215.1,286046991.2,N
1711160235.9,286046991.2,N
1711160255.7,286046990.7,N
1711160275.5,286046990.7,N
1711160295.4,286046994.0,N
1711160315.2,286046992.4,N
1711160335.0,286046991.9,N
1711160335.9,286046991.9,N
1711160355.8,286046991.7,N
1711160375.6,286046994.5,N
1711160395.5,286046994.7,N
1711160415.3,286046993.4,N
1711160435.1,286046996.2,N
1711160455.9,286046995.5,N
1711160475.7,286046997.4,N
1711160495.5,286046994.9,N
1711160515.4,286046991.8,N
1711160535.2,286046992.8,N
1711160555.0,286046990.7,N
1711160556.0,286046990.7,N
1711160575.8,286046987.9,N
1711160595.6,286046987.5,Y
1711160615.5,286046995.8,P
1711160635.3,286046996.5,N
1711160655.1,286046998.6,N
1711160675.9,286046998.8,N
1711160695.7,286046997.2,N
1711160715.6,286046996.9,N
1711160735.4,286047000.4,N
1711160755.2,286046994.9,N
1711160775.1,286046993.3,Y
1711160776.0,286046993.3,P
1711160795.8,286046997.8,N
1711160815.6,286046997.3,N
1711160835.5,286046996.7,N
1711160855.3,286046997.8,N
1711160875.2,286046994.4,Y
1711160895.9,286046993.9,P
1711160915.7,286046992.5,P
1711160935.6,286046986.3,P
1711160955.4,286046989.2,N
1711160975.2,286046989.9,N
1711160995.1,286046991.0,N
1711160996.0,286046991.0,N
1711161015.8,286046988.7,Y
1711161035.7,286046997.5,P
1711161055.5,286046994.9,N
1711161075.3,286046993.7,N
1711161095.2,286046995.4,N
1711161115.0,286046995.8,N
1711161115.9,286046995.8,N
1711161135.8,286046992.3,Y
1711161155.6,286046997.5,P
1711161175.4,286047000.9,N
1711161195.3,286047002.3,N
1711161215.1,286047002.4,N
1711161235.8,286047004.2,N
1711161255.7,286047005.4,N
1711161275.5,286047007.2,N
1711161295.4,286047008.1,N
1711161315.2,286047014.0,Y
1711161335.0,286047010.0,P
1711161335.9,286047010.0,N
1711161355.8,286047011.0,P
1711161375.6,286047010.9,Y
1711161395.5,286047007.6,P
1711161415.3,286047006.9,P
1711161435.1,286047004.0,P
1711161455.9,286047006.0,Y
1711161475.7,286046999.7,P
1711161495.6,286047005.5,N
1711161515.4,286047006.9,N
1711161535.2,286047011.1,Y
1711161555.1,286047012.1,P
1711161556.0,286047012.1,P
1711161575.8,286047015.1,P
1711161595.7,286047016.8,Y
1711161615.5,286047009.1,P
1711161635.3,286047011.7,P
1711161655.2,286047014.2,P
1711161675.0,286047020.3,Y
1711161675.9,286047020.3,P
1711161695.8,286047012.5,N
1711161715.6,286047015.9,P
1711161735.4,286047019.5,Y
1711161755.3,286047008.8,P
1711161775.1,286047011.0,P
1711161795.8,286047014.9,P
1711161815.7,286047018.0,Y
1711161835.5,286047008.0,P
1711161855.4,286047010.3,P
1711161875.2,286047011.4,P
1711161895.0,286047009.7,Y
1711161895.9,286047009.7,P
1711161915.8,286047000.0,N
1711161935.6,286047003.7,N
1711161955.4,286047005.6,N
1711161975.3,286047005.3,N
1711161995.1,286047003.5,N
1711162015.9,286047003.8,N
1711162035.7,286047004.4,N
1711162055.5,286047005.4,N
1711162075.4,286047007.6,N
1711162095.2,286047009.2,Y
1711162115.0,286047003.9,P
1711162116.0,286047003.9,P
1711162135.8,286047005.5,P
1711162155.6,286047005.9,Y
1711162175.5,286046999.7,P
1711162195.3,286046999.1,N
1711162215.1,286046999.4,N
1711162235.9,286046997.2,N
1711162255.7,286046994.4,N
1711162275.6,286046994.6,N
1711162295.4,286046992.8,N
1711162315.2,286046992.3,N
1711162335.1,286046991.7,N
1711162336.0,286046991.7,N
1711162355.8,286046990.1,N
1711162375.6,286046993.0,N
1711162395.5,286046990.5,N
1711162415.3,286046992.2,N
1711162435.1,286046992.0,N
1711162455.9,286046994.1,N
1711162475.7,286046995.8,N
1711162495.6,286046996.7,N
1711162515.4,286046999.3,N
1711162535.2,286047000.8,N
1711162555.1,286047002.4,N
1711162556.0,286047002.4,N
1711162575.8,286047001.7,N
1711162595.6,286047003.0,N
1711162615.5,286047003.3,N
1711162635.3,286047004.3,N
1711162655.2,286047004.4,N
1711162675.9,286047001.3,N
1711162695.7,286047003.2,N
1711162715.6,286047003.4,N
1711162735.4,286047005.2,N
1711162755.2,286047007.0,N
1711162775.1,286047006.9,N
1711162776.0,286047006.9,N
1711162795.8,286047007.2,N
